Regional Weather Roundup
Issued by NWS

Home | Current Version | Previous Version | Text Only | Print | Product List | Glossary Off
Versions: 1 2 3 4 5 6 7 8 9 10 11 12 13 14 15 16 17 18 19 20 21 22 23 24 25 26 27 28 29 30 31 32 33 34 35 36 37 38 39 40 41 42 43 44 45 46 47 48 49 50

000
ASUS43 KLOT 010912
RWRIL

ILLINOIS REGIONAL WEATHER ROUNDUP
NATIONAL WEATHER SERVICE CHICAGO/ROMEOVILLE IL
400 AM CDT SAT AUG 01 2015

NOTE: "FAIR" INDICATES FEW OR NO CLOUDS BELOW 12,000 FEET WITH NO
SIGNIFICANT WEATHER AND/OR OBSTRUCTIONS TO VISIBILITY.

* THESE STATIONS ARE NOT UNDER NWS QUALITY CONTROL. THEY ALSO MAY NOT
  REPORT WEATHER SUCH AS PRECIPITATION OR FOG.

ILZ001-002-007-009-015-016-024-011000-
NORTHWEST ILLINOIS

CITY           SKY/WX    TMP DP  RH WIND       PRES   REMARKS
MOLINE         CLEAR     60  57  89 CALM      30.03S
STERLING*      CLEAR     61  55  82 W3        29.99S
SAVANNA*       CLEAR     60  57  92 CALM      30.01S
$$

ILZ003-004-008-010-011-017-018-011000-
NORTH CENTRAL ILLINOIS

CITY           SKY/WX    TMP DP  RH WIND       PRES   REMARKS
ROCKFORD       CLEAR     61  54  77 CALM      30.02S
FREEPORT*      CLEAR     60  55  85 W5        30.03S
ROCHELLE*      CLEAR     55  53  95 CALM      30.02S
DE KALB*       CLEAR     64  55  74 W8        30.02S
PERU*          CLEAR     63  57  81 NW9       30.03R
$$

ILZ005-006-012>014-019>023-011000-
NORTHEAST ILLINOIS

CITY           SKY/WX    TMP DP  RH WIND       PRES   REMARKS
CHICAGO-OHARE  CLEAR     66  53  63 W7        29.98S
CHICAGO-MIDWAY CLEAR     68  52  56 W6        29.98S
AURORA         CLEAR     57  52  83 CALM      30.01S
LANSING*       CLEAR     63  53  71 W5        29.99S
JOLIET*        CLEAR     59  56  89 CALM      30.00S
WAUKEGAN       CLEAR     62  53  72 SW3       29.97S
DUPAGE AIRPORT CLEAR     62  53  72 W5        29.99S
KANKAKEE*      CLEAR     61  58  91 W5        30.02R
WHEELING       CLEAR     66  52  60 VRB3      29.99F
MORRIS*        CLEAR     60  56  87 W5        30.00S
ROMEOVILLE*    CLEAR     60  53  77 NW6       30.00S
NORTHERLY ISL    N/A     71  51  49 W7          N/A
$$

LMZ740>746-011000-
SOUTHERN LAKE MICHIGAN

STATION/POSITION SKY/WX   TEMP    WIND        PRES    VSBY  WAVE
                          AIR SEA DIR/SP/G                  HT/PER
                          (F)     (DEG/KT/KT) (MB)    (MI)  (FT/S)
HARRISON CRIB              72     300/ 13/ 16   N/A
BURNHAM HARBOR             71     260/  9/ 11   N/A
CALUMET HARBOR             70     270/  2/  5   N/A
BURNS HARBOR               74     280/  8/ 10 1015.6S
MICHIGAN CITY              73     280/ 14/ 15   N/A
MICHIGAN CITY 6N           74 74  320/ 12/ 16   N/A           3/ 4
ST. JOSEPH                 73 74  330/ 12/ 14   N/A           3/ 4
$$

ILZ025>027-034>036-040-047-049-050-058-095>099-011000-
WEST-CENTRAL ILLINOIS

CITY           SKY/WX    TMP DP  RH WIND       PRES   REMARKS
QUINCY         MOCLDY    71  64  78 CALM      30.05R
GALESBURG*     CLEAR     60  58  92 CALM      30.04S
MACOMB*        CLEAR     61  59  94 CALM      30.06S
JACKSONVILLE*  MOCLDY    71  67  88 CALM      30.04R
PITTSFIELD*    PTCLDY    73  65  76 NE7       30.05S
$$

ILZ028>032-037-038-041>044-048-051>054-059>061-011000-
CENTRAL ILLINOIS

CITY           SKY/WX    TMP DP  RH WIND       PRES   REMARKS
PONTIAC        CLEAR     60  59  96 CALM      30.03S
BLOOMINGTON    CLEAR     65  58  78 W6        30.05S
DECATUR        CLEAR     69  57  65 N9        30.03S
PEORIA         CLEAR     67  60  78 NW3       30.04S
LACON*         CLEAR     63  57  81 CALM      30.02S
LINCOLN*       CLEAR     65  59  82 CALM      30.04R
SPRINGFIELD    CLEAR     67  61  81 N5        30.04S
TAYLORVILLE    CLEAR     64  63  94 N6        30.03F
$$

ILZ033-039-045-046-055>057-062-063-011000-
EAST-CENTRAL ILLINOIS

CITY           SKY/WX    TMP DP  RH WIND       PRES   REMARKS
CHAMPAIGN      CLEAR     60  57  89 W3        30.03S
DANVILLE*      CLEAR     61  58  91 NW3       29.99S
RANTOUL*       CLEAR     64  59  86 NW7       30.02S
MATTOON        CLEAR     66  57  72 NW5       30.03R
PARIS*         CLEAR     60  59  97 W5        30.03R
$$

ILZ079-100>102-011000-
SOUTHWEST ILLINOIS

CITY           SKY/WX    TMP DP  RH WIND       PRES   REMARKS
ALTON          CLEAR     67  66  96 CALM      30.03S
BELLEVILLE     CLEAR     69  69  99 CALM      30.01S
CAHOKIA*       CLEAR     69  66  90 CALM      30.02S
SPARTA*        CLEAR     71  66  85 W5        30.04S
$$

ILZ064>066-069>071-074>076-080>082-084>086-088>090-092>094-011000-
SOUTH-CENTRAL ILLINOIS

CITY           SKY/WX    TMP DP  RH WIND       PRES   REMARKS
CARBONDALE     CLEAR     69  67  93 SW3       30.02S
CAIRO*         CLEAR     70  70  99 CALM      30.02S FOG
EFFINGHAM*     MOCLDY    71  64  79 N5        30.04S
MARION         CLEAR     72  70  94 CALM      30.02F
MT. VERNON     CLEAR     66  61  82 CALM      30.03S
CENTRALIA*     CLEAR     66  64  92 CALM      30.03S
SALEM*         CLEAR     68  65  91 CALM      30.03R
METROPOLIS*    CLEAR     69  69 100 CALM      30.02F FOG
$$

ILZ067-068-072-073-078-083-087-091-011000-
SOUTHEAST ILLINOIS

CITY           SKY/WX    TMP DP  RH WIND       PRES   REMARKS
LAWRENCEVILLE  CLEAR     70  66  87 CALM      30.01S
FLORA*         CLEAR     71  66  83 NW6       30.02S
FAIRFIELD*     CLEAR     67  67  99 CALM      30.01S
HARRISBURG*    CLEAR     68  68 100 CALM      30.02S
ROBINSON*      CLEAR     65  64  96 NW3       30.02S
CARMI*         CLEAR     69  64  85 CALM      30.01S
$$

ABBREVIATIONS USED IN REMARKS
   TC - TEMPERATURE IN CELSIUS
  WCI - WIND CHILL INDEX
   HX - HEAT INDEX
  VSB - VISIBILITY
$$



USA.gov is the U.S. government's official web portal to all federal, state and local government web resources and services.